Regional Weather Roundup
Issued by NWS Charleston, SC

Current Version | Previous Version | Graphics & Text | Print | Product List | Glossary On
Versions: 1 2 3 4 5 6 7 8 9 10 11 12 13 14 15 16 17 18 19 20 21 22 23 24 25 26 27 28 29 30 31 32 33 34 35 36 37 38 39 40 41 42 43 44 45 46 47 48 49 50
000 ASUS42 KCHS 291811 RWRCHS REGIONAL WEATHER ROUNDUP NATIONAL WEATHER SERVICE CHARLESTON SC 200 PM EDT SUN MAR 29 2015 NOTE: "FAIR" INDICATES FEW OR NO CLOUDS BELOW 12,000 FEET WITH NO SIGNIFICANT WEATHER AND/OR OBSTRUCTIONS TO VISIBILITY. NOT ALL STATIONS ARE QUALITY CONTROLLED BY THE NATIONAL WEATHER SERVICE. USE DATA WITH CAUTION...ESPECIALLY DEWPOINT OBSERVATIONS. SCZ027-030-031-034>040-042>050-291900- ...SOUTHEAST SOUTH CAROLINA... CITY SKY/WX TMP DP RH WIND PRES REMARKS N CHARLESTON MOSUNNY 54 13 19 VRB5 30.42F 6HR MIN TEMP: 36; 6HR MAX TEMP: 54; WATERFRONT PRK N/A 50 N/A N/A SE7 N/A MOUNT PLEASANT FAIR 52 25 35 SE6 30.42S PINOPOLIS N/A 48 16 27 W5 30.36F MONCKS CORNER FAIR 52 16 24 NW5 30.42F SUMMERVILLE FAIR 52 21 30 CALM 30.43F BEAUFORT MCAS SUNNY 55 23 28 VRB3 30.42F 6HR MIN TEMP: 39; 6HR MAX TEMP: 55; BEAUFORT ARPT FAIR 54 28 37 E6 30.42F HILTON HEAD IS SUNNY 52 27 37 SE6 30.42F WALTERBORO CLEAR 52 12 20 CALM 30.42F ALLENDALE FAIR 54 14 20 VRB6 30.42F ...SOUTHERN MIDLANDS AND PEE DEE... CITY SKY/WX TMP DP RH WIND PRES REMARKS GEORGETOWN NOT AVBL KINGSTREE NOT AVBL ORANGEBURG SUNNY 51 15 23 CALM 30.42F 6HR MIN TEMP: 34; 6HR MAX TEMP: 51; BARNWELL FAIR 54 19 26 SE7 30.43F AIKEN FAIR 50 12 22 SW7 30.44F MANNING RAIN N/A N/A N/A S3 30.42F COLUMBIA SUNNY 51 12 21 S5 30.42F 6HR MIN TEMP: 35; 6HR MAX TEMP: 52; SUMTER SUNNY 50 9 19 VRB2 30.40F 6HR MIN TEMP: 30; 6HR MAX TEMP: 50; FLORENCE SUNNY 50 9 19 VRB3 30.40F 6HR MIN TEMP: 32; 6HR MAX TEMP: 50; MYRTLE BEACH SUNNY 48 12 23 N10 30.43F N MYRTLE BEACH SUNNY 50 16 25 N7 30.40F 6HR MIN TEMP: 33; 6HR MAX TEMP: 50; $$ GAZ063-065-086>088-099>101-113>116-118-119-134>141-150-291900- ...SOUTHEAST GEORGIA... CITY SKY/WX TMP DP RH WIND PRES REMARKS SAVANNAH ARPT MOSUNNY 56 18 22 SE6 30.41F 6HR MIN TEMP: 37; 6HR MAX TEMP: 57; HUNTER AAF SUNNY 56 23 27 N8 30.39F 6HR MIN TEMP: 40; 6HR MAX TEMP: 56; FORT STEWART SUNNY 58 21 23 VRB5 30.39F 6HR MIN TEMP: 38; 6HR MAX TEMP: 58; STATESBORO SUNNY 56 21 26 CALM 30.41F SYLVANIA CLEAR 54 23 29 E3 30.41F CLAXTON FAIR 55 27 33 CALM 30.41F ...CSRA...CENTRAL AND FAR SOUTHEAST GEORGIA... CITY SKY/WX TMP DP RH WIND PRES REMARKS THOMSON SUNNY 54 19 25 CALM 30.44F AUGUSTA-BUSH SUNNY 53 12 19 VRB5 30.42F 6HR MIN TEMP: 30; 6HR MAX TEMP: 54; AUGUSTA-DANIEL SUNNY 53 12 19 E3 30.42F SWAINSBORO FAIR N/A N/A N/A SE5 30.40F VIDALIA SUNNY 57 23 26 E5 30.40F EASTMAN FAIR 59 22 24 S7 30.41F HAZLEHURST FAIR 57 23 26 CALM 30.38F ALMA SUNNY 58 24 27 E7 30.39F 6HR MIN TEMP: 37; 6HR MAX TEMP: 58; WAYCROSS SUNNY 62 29 28 NE10G18 30.38F JESUP FAIR 61 30 31 NE7 30.39F BAXLEY FAIR 59 23 25 SE6 30.39F BRUNSWICK SUNNY 57 32 38 E13 30.42F SAINT SIMONS SUNNY 55 37 50 NE14 30.41F 6HR MIN TEMP: 39; 6HR MAX TEMP: 56; $$ SCZ027-028-034-036>038-045-046-048>050-GAZ119-141-291900- ...LAKE AND SUPPLEMENTAL COASTAL OBSERVATIONS... STATION/POSITION TIME TEMP WIND PRES WAVE SWELL AIR SEA DIR/SP/G HT/PER HT/PER/DIR (UTC) (F) (DEG/KT/KT) (MB) (FT/S) (FT/S/D) UPR LAKE MARION NOT AVBL WINYAH BAY 1645 43 90/ 7 1029.0 LAKE MURRAY 1700 44 210/ 6/ 9 1030.1S ACE BASIN NERRS NOT AVBL FORT PULASKI 1706 48 60 70/ 14/ 17 1031.1F SAPELO ISLAND 1700 55 60/ 11 1030.0S $$ ANZ835-935-AMZ111-154-330-350-352-354-370-450-454-472-291900- ...C-MAN AND BUOY OBSERVATIONS... STATION/POSITION TIME TEMP WIND PRES WAVE SWELL AIR SEA DIR/SP/G HT/PER HT/PER/DIR (UTC) (F) (DEG/KT/KT) (MB) (FT/S) (FT/S/D) BUOY 41004 1750 47 68 20/ 12/ 16 1029.7F 5/ 6 3/ 6 BUOY 41008 1750 51 61 50/ 14/ 16 1029.8F 5/ 6 3/ 50/ 6 FOLLY BEACH CMAN 1800 47 90/ 4/ 5 1030.3F CAPERS NEARSHORE NOT AVBL FRIPP NEARSHORE 1700 48 60/ 10/ 14 1030.1R STATION/POSITION TIME TEMP WIND PRES WAVE SWELL AIR SEA DIR/SP/G HT/PER HT/PER/DIR (UTC) (F) (DEG/KT/KT) (MB) (FT/S) (FT/S/D) 5E ST. MARYS GA 1721 60 N/A 3/ 5 FRYING PAN BUOY 1750 42 64 10/ 12/ 16 1030.6F 4/ 6 3/ 50/ 6 BUOY 41025 NOT AVBL CAPE LOOKOUT NC 1800 43 340/ 12/ 16 1028.6F BUOY 41002 1750 54 68 330/ 23/ 29 1026.3F 8/ 8 BUOY 41010 1720 64 76 360/ 14/ 19 1026.5F ST AUGUSTINE FL 1800 55 61 20/ 13/ 14 1029.8F $$

USA.gov is the U.S. government's official web portal to all federal, state and local government web resources and services.